| time (UTC) | temp F | wind direction | speed MPH | gust MPH | rain 1hr in | rain 24hr in | rain mn in | humidity % | barometer mb |
| 20260505213854 | 41 | 345 | 0.0 | 4.0 | 0.00 | 0.01 | 0.01 | 88 | 1011.0 |
| 20260505213348 | 41 | 348 | 0.0 | 2.0 | 0.00 | 0.01 | 0.01 | 88 | 1011.0 |
| 20260505212841 | 41 | 347 | 0.0 | 3.0 | 0.00 | 0.01 | 0.01 | 88 | 1011.1 |
| 20260505212335 | 41 | 65 | 0.0 | 4.0 | 0.00 | 0.01 | 0.01 | 88 | 1011.1 |
| 20260505211325 | 41 | 76 | 0.0 | 4.0 | 0.00 | 0.01 | 0.01 | 89 | 1011.0 |
| 20260505210819 | 41 | 65 | 0.0 | 4.0 | 0.00 | 0.01 | 0.01 | 89 | 1011.1 |
| 20260505210312 | 41 | 78 | 0.0 | 3.0 | 0.00 | 0.01 | 0.01 | 89 | 1011.1 |
| 20260505205806 | 41 | 79 | 0.0 | 2.0 | 0.00 | 0.01 | 0.01 | 89 | 1011.3 |
| 20260505204247 | 41 | 86 | 0.0 | 4.0 | 0.00 | 0.01 | 0.01 | 89 | 1011.7 |
| 20260505203247 | 41 | 87 | 0.0 | 2.0 | 0.00 | 0.01 | 0.01 | 89 | 1011.9 |
| 20260505202744 | 41 | 87 | 0.0 | 3.0 | 0.00 | 0.01 | 0.01 | 89 | 1012.0 |
| 20260505201742 | 41 | 87 | 0.0 | 2.0 | 0.00 | 0.01 | 0.01 | 89 | 1012.3 |
| 20260505200740 | 41 | 87 | 0.0 | 3.0 | 0.00 | 0.01 | 0.01 | 89 | 1012.2 |
| 20260505200238 | 41 | 87 | 0.0 | 3.0 | 0.00 | 0.01 | 0.01 | 89 | 1012.2 |
| 20260505195736 | 41 | 88 | 0.0 | 2.0 | 0.00 | 0.01 | 0.01 | 89 | 1012.3 |
| 20260505195236 | 41 | 88 | 0.0 | 3.0 | 0.00 | 0.01 | 0.01 | 89 | 1012.3 |
| 20260505194735 | 41 | 88 | 0.0 | 3.0 | 0.00 | 0.01 | 0.01 | 89 | 1012.3 |
| 20260505194234 | 41 | 88 | 0.0 | 3.0 | 0.00 | 0.01 | 0.01 | 89 | 1012.2 |
| 20260505193734 | 41 | 88 | 0.0 | 3.0 | 0.00 | 0.01 | 0.01 | 89 | 1012.2 |
| 20260505193232 | 41 | 82 | 0.0 | 3.0 | 0.00 | 0.01 | 0.01 | 89 | 1012.0 |
| 20260505192732 | 41 | 82 | 1.0 | 4.0 | 0.00 | 0.01 | 0.01 | 89 | 1012.0 |
| 20260505192234 | 41 | 82 | 0.0 | 4.0 | 0.00 | 0.01 | 0.01 | 89 | 1011.9 |
| 20260505191731 | 42 | 85 | 0.0 | 2.0 | 0.00 | 0.01 | 0.01 | 90 | 1011.9 |
| 20260505190733 | 41 | 88 | 0.0 | 3.0 | 0.00 | 0.01 | 0.01 | 90 | 1012.2 |
| 20260505185724 | 41 | 88 | 0.0 | 2.0 | 0.00 | 0.01 | 0.01 | 90 | 1012.4 |
| 20260505185224 | 41 | 88 | 0.0 | 2.0 | 0.00 | 0.01 | 0.01 | 90 | 1012.4 |
| 20260505184723 | 41 | 88 | 1.0 | 3.0 | 0.00 | 0.01 | 0.01 | 90 | 1012.5 |
| 20260505184224 | 41 | 88 | 0.0 | 3.0 | 0.00 | 0.01 | 0.01 | 90 | 1012.6 |
| 20260505183724 | 41 | 88 | 0.0 | 2.0 | 0.00 | 0.01 | 0.01 | 90 | 1012.7 |
| 20260505183223 | 41 | 88 | 0.0 | 2.0 | 0.00 | 0.01 | 0.01 | 90 | 1012.7 |
| 20260505182724 | 40 | 88 | 0.0 | 2.0 | 0.00 | 0.01 | 0.01 | 90 | 1012.7 |
| 20260505182221 | 40 | 89 | 0.0 | 2.0 | 0.00 | 0.01 | 0.01 | 90 | 1012.6 |
| 20260505181720 | 40 | 89 | 0.0 | 3.0 | 0.01 | 0.01 | 0.01 | 90 | 1012.7 |
| 20260505181218 | 40 | 89 | 1.0 | 3.0 | 0.01 | 0.01 | 0.01 | 90 | 1013.0 |
| 20260505180715 | 40 | 89 | 0.0 | 3.0 | 0.01 | 0.01 | 0.01 | 90 | 1013.1 |
| 20260505180216 | 40 | 61 | 0.0 | 2.0 | 0.01 | 0.01 | 0.01 | 90 | 1013.1 |
| 20260505175218 | 40 | 58 | 0.0 | 3.0 | 0.01 | 0.01 | 0.01 | 90 | 1013.2 |
| 20260505174719 | 40 | 55 | 0.0 | 2.0 | 0.01 | 0.01 | 0.01 | 90 | 1013.3 |
| 20260505174215 | 40 | 54 | 0.0 | 4.0 | 0.01 | 0.01 | 0.01 | 90 | 1013.4 |
| 20260505173716 | 40 | 51 | 0.0 | 4.0 | 0.01 | 0.01 | 0.01 | 90 | 1013.4 |
| 20260505172711 | 40 | 70 | 0.0 | 2.0 | 0.01 | 0.01 | 0.01 | 90 | 1013.4 |
| 20260505171711 | 40 | 67 | 0.0 | 3.0 | 0.00 | 0.00 | 0.00 | 90 | 1013.4 |
| 20260505171211 | 40 | 65 | 0.0 | 3.0 | 0.00 | 0.00 | 0.00 | 90 | 1013.3 |
| 20260505170711 | 39 | 65 | 0.0 | 3.0 | 0.00 | 0.00 | 0.00 | 90 | 1013.4 |
| 20260505170212 | 39 | 65 | 0.0 | 2.0 | 0.00 | 0.00 | 0.00 | 90 | 1013.4 |
| 20260505165708 | 39 | 63 | 0.0 | 2.0 | 0.00 | 0.00 | 0.00 | 90 | 1013.6 |
| 20260505164708 | 39 | 63 | 0.0 | 1.0 | 0.00 | 0.00 | 0.00 | 90 | 1013.6 |
| 20260505164207 | 39 | 61 | 0.0 | 2.0 | 0.00 | 0.00 | 0.00 | 90 | 1013.6 |
| 20260505163707 | 39 | 52 | 0.0 | 2.0 | 0.00 | 0.00 | 0.00 | 90 | 1013.7 |
| 20260505163208 | 39 | 54 | 0.0 | 2.0 | 0.00 | 0.00 | 0.00 | 90 | 1013.7 |
| 20260505162707 | 39 | 53 | 0.0 | 3.0 | 0.00 | 0.00 | 0.00 | 90 | 1013.6 |
| 20260505162208 | 39 | 53 | 0.0 | 3.0 | 0.00 | 0.00 | 0.00 | 90 | 1013.7 |
| 20260505161707 | 38 | 53 | 0.0 | 1.0 | 0.00 | 0.00 | 0.00 | 90 | 1013.7 |
| 20260505161203 | 38 | 53 | 0.0 | 1.0 | 0.00 | 0.00 | 0.00 | 90 | 1013.7 |
| 20260505160703 | 38 | 53 | 0.0 | 2.0 | 0.00 | 0.00 | 0.00 | 90 | 1013.8 |
| 20260505160203 | 38 | 53 | 0.0 | 2.0 | 0.00 | 0.00 | 0.00 | 90 | 1013.8 |
| 20260505152155 | 38 | 33 | 0.0 | 1.0 | 0.00 | 0.00 | 0.00 | 90 | 1014.0 |
| 20260505151653 | 38 | 33 | 0.0 | 1.0 | 0.00 | 0.00 | 0.00 | 90 | 1014.0 |
| 20260505151153 | 38 | 33 | 0.0 | 2.0 | 0.00 | 0.00 | 0.00 | 89 | 1014.0 |
| 20260505150653 | 38 | 33 | 0.0 | 2.0 | 0.00 | 0.00 | 0.00 | 89 | 1014.0 |
| 20260505150151 | 38 | 342 | 0.0 | 2.0 | 0.00 | 0.00 | 0.00 | 89 | 1013.9 |
| 20260505124920 | 38 | 324 | 0.0 | 1.0 | 0.00 | 0.00 | 0.00 | 88 | 1013.1 |
| 20260505124422 | 38 | 327 | 0.0 | 3.0 | 0.00 | 0.00 | 0.00 | 88 | 1012.9 |
| 20260505123909 | 38 | 54 | 0.0 | 3.0 | 0.00 | 0.00 | 0.00 | 88 | 1012.9 |
| 20260505123404 | 38 | 340 | 1.0 | 3.0 | 0.00 | 0.00 | 0.00 | 88 | 1012.9 |
| 20260505122856 | 38 | 342 | 0.0 | 3.0 | 0.00 | 0.00 | 0.00 | 88 | 1012.9 |
| 20260505122350 | 38 | 349 | 0.0 | 2.0 | 0.00 | 0.00 | 0.00 | 88 | 1013.0 |
| 20260505121844 | 38 | 342 | 0.0 | 6.0 | 0.00 | 0.00 | 0.00 | 88 | 1012.7 |
| 20260505121339 | 38 | 342 | 1.0 | 6.0 | 0.00 | 0.00 | 0.00 | 88 | 1012.6 |
| 20260505120833 | 39 | 350 | 1.0 | 5.0 | 0.00 | 0.00 | 0.00 | 88 | 1012.6 |
| 20260505120327 | 39 | 5 | 1.0 | 6.0 | 0.00 | 0.00 | 0.00 | 88 | 1012.6 |
| 20260505115821 | 39 | 336 | 1.0 | 6.0 | 0.00 | 0.00 | 0.00 | 88 | 1012.6 |
| 20260505115314 | 39 | 355 | 1.0 | 6.0 | 0.00 | 0.00 | 0.00 | 87 | 1012.4 |
| 20260505114809 | 40 | 294 | 0.0 | 3.0 | 0.00 | 0.00 | 0.00 | 88 | 1012.3 |
| 20260505114303 | 40 | 312 | 0.0 | 4.0 | 0.00 | 0.00 | 0.00 | 88 | 1012.4 |
| 20260505113756 | 40 | 26 | 0.0 | 4.0 | 0.00 | 0.00 | 0.00 | 87 | 1012.4 |
| 20260505113251 | 40 | 345 | 0.0 | 2.0 | 0.00 | 0.00 | 0.00 | 88 | 1012.3 |
| 20260505112744 | 40 | 299 | 0.0 | 4.0 | 0.00 | 0.00 | 0.00 | 88 | 1012.3 |
| 20260505111734 | 40 | 259 | 0.0 | 2.0 | 0.00 | 0.00 | 0.00 | 87 | 1012.2 |
| 20260505111228 | 40 | 43 | 0.0 | 2.0 | 0.00 | 0.00 | 0.00 | 87 | 1012.0 |
| 20260505110722 | 40 | 36 | 0.0 | 2.0 | 0.00 | 0.00 | 0.00 | 87 | 1011.8 |
| 20260505110218 | 41 | 78 | 0.0 | 2.0 | 0.00 | 0.00 | 0.00 | 87 | 1011.6 |
| 20260505102127 | 42 | 71 | 0.0 | 3.0 | 0.00 | 0.00 | 0.00 | 87 | 1011.0 |
| 20260505101115 | 42 | 76 | 0.0 | 1.0 | 0.00 | 0.00 | 0.00 | 87 | 1010.9 |
| 20260505100608 | 42 | 90 | 0.0 | 4.0 | 0.00 | 0.00 | 0.00 | 87 | 1010.8 |
| 20260505095051 | 42 | 94 | 0.0 | 3.0 | 0.00 | 0.00 | 0.00 | 86 | 1010.5 |
| 20260505094550 | 43 | 64 | 0.0 | 3.0 | 0.00 | 0.00 | 0.00 | 86 | 1010.5 |
| 20260505094050 | 43 | 82 | 0.0 | 3.0 | 0.00 | 0.00 | 0.00 | 86 | 1010.4 |
| 20260505093551 | 44 | 91 | 0.0 | 6.0 | 0.00 | 0.00 | 0.00 | 86 | 1010.3 |
| 20260505093048 | 44 | 88 | 0.0 | 6.0 | 0.00 | 0.00 | 0.00 | 86 | 1010.3 |
| 20260505092049 | 46 | 86 | 0.0 | 10.0 | 0.00 | 0.00 | 0.00 | 86 | 1010.3 |
| 20260505091552 | 46 | 87 | 0.0 | 3.0 | 0.00 | 0.00 | 0.00 | 87 | 1010.1 |
| 20260505091049 | 46 | 80 | 0.0 | 1.0 | 0.00 | 0.00 | 0.00 | 86 | 1010.1 |
| 20260505090546 | 47 | 80 | 0.0 | 3.0 | 0.00 | 0.00 | 0.00 | 86 | 1009.9 |
| 20260505090045 | 47 | 80 | 0.0 | 4.0 | 0.00 | 0.00 | 0.00 | 86 | 1010.1 |
| 20260505085545 | 47 | 84 | 0.0 | 4.0 | 0.00 | 0.00 | 0.00 | 86 | 1010.1 |
| 20260505085045 | 48 | 89 | 0.0 | 4.0 | 0.00 | 0.00 | 0.00 | 86 | 1010.2 |
| 20260505084544 | 48 | 80 | 0.0 | 3.0 | 0.00 | 0.00 | 0.00 | 86 | 1010.2 |
| 20260505083544 | 48 | 269 | 0.0 | 1.0 | 0.00 | 0.00 | 0.00 | 86 | 1010.2 |
| 20260505083042 | 49 | 268 | 0.0 | 0.0 | 0.00 | 0.00 | 0.00 | 86 | 1010.2 |
| 20260505082543 | 49 | 268 | 0.0 | 0.0 | 0.00 | 0.00 | 0.00 | 86 | 1010.2 |
| 20260505082038 | 49 | 268 | 0.0 | 0.0 | 0.00 | 0.00 | 0.00 | 86 | 1010.2 |
| 20260505081539 | 49 | 268 | 0.0 | 0.0 | 0.00 | 0.00 | 0.00 | 86 | 1010.3 |
| 20260505081038 | 49 | 268 | 0.0 | 0.0 | 0.00 | 0.00 | 0.00 | 86 | 1010.4 |
| 20260505080538 | 49 | 268 | 0.0 | 1.0 | 0.00 | 0.00 | 0.00 | 86 | 1010.3 |
| 20260505075539 | 49 | 268 | 0.0 | 0.0 | 0.00 | 0.00 | 0.00 | 86 | 1010.4 |
| 20260505075038 | 49 | 268 | 0.0 | 1.0 | 0.00 | 0.00 | 0.00 | 86 | 1010.4 |
| 20260505074539 | 49 | 268 | 0.0 | 1.0 | 0.00 | 0.00 | 0.00 | 86 | 1010.4 |
| 20260505074039 | 49 | 267 | 0.0 | 0.0 | 0.00 | 0.00 | 0.00 | 86 | 1010.4 |
| 20260505073538 | 49 | 267 | 0.0 | 0.0 | 0.00 | 0.00 | 0.00 | 86 | 1010.4 |
| 20260505073038 | 49 | 267 | 0.0 | 0.0 | 0.00 | 0.00 | 0.00 | 86 | 1010.3 |
| 20260505072039 | 49 | 267 | 0.0 | 0.0 | 0.00 | 0.00 | 0.00 | 85 | 1010.4 |
| 20260505071538 | 49 | 267 | 0.0 | 0.0 | 0.00 | 0.00 | 0.00 | 85 | 1010.3 |
| 20260505071038 | 49 | 267 | 0.0 | 0.0 | 0.00 | 0.00 | 0.00 | 85 | 1010.3 |
| 20260505070038 | 49 | 267 | 0.0 | 0.0 | 0.00 | 0.00 | 0.00 | 86 | 1010.3 |
| 20260505065538 | 49 | 267 | 0.0 | 0.0 | 0.00 | 0.00 | 0.00 | 86 | 1010.3 |
| 20260505065039 | 49 | 267 | 0.0 | 0.0 | 0.00 | 0.00 | 0.00 | 86 | 1010.3 |
| 20260505064539 | 49 | 267 | 0.0 | 0.0 | 0.00 | 0.00 | 0.00 | 86 | 1010.4 |
| 20260505064041 | 49 | 267 | 0.0 | 0.0 | 0.00 | 0.00 | 0.00 | 86 | 1010.3 |
| 20260505063036 | 49 | 267 | 0.0 | 0.0 | 0.00 | 0.00 | 0.00 | 85 | 1010.4 |
| 20260505062535 | 49 | 267 | 0.0 | 0.0 | 0.00 | 0.00 | 0.00 | 85 | 1010.4 |
| 20260505062034 | 49 | 267 | 0.0 | 0.0 | 0.00 | 0.00 | 0.00 | 85 | 1010.4 |
| 20260505061534 | 49 | 267 | 0.0 | 0.0 | 0.00 | 0.00 | 0.00 | 85 | 1010.6 |
| 20260505061034 | 49 | 267 | 0.0 | 0.0 | 0.00 | 0.00 | 0.00 | 85 | 1010.8 |
| 20260505060534 | 49 | 267 | 0.0 | 0.0 | 0.00 | 0.00 | 0.00 | 85 | 1010.6 |
| 20260505060030 | 49 | 267 | 0.0 | 0.0 | 0.00 | 0.00 | 0.00 | 85 | 1010.6 |
| 20260505055532 | 49 | 267 | 0.0 | 0.0 | 0.00 | 0.00 | 0.00 | 85 | 1010.5 |
| 20260505055029 | 49 | 267 | 0.0 | 0.0 | 0.00 | 0.00 | 0.00 | 85 | 1010.5 |
| 20260505054531 | 49 | 267 | 0.0 | 0.0 | 0.00 | 0.00 | 0.00 | 85 | 1010.3 |
| 20260505054025 | 50 | 267 | 0.0 | 0.0 | 0.00 | 0.00 | 0.00 | 84 | 1010.2 |
| 20260505053519 | 50 | 267 | 0.0 | 0.0 | 0.00 | 0.00 | 0.00 | 84 | 1010.2 |
| 20260505052509 | 50 | 267 | 0.0 | 0.0 | 0.00 | 0.00 | 0.00 | 84 | 1010.2 |
| 20260505052003 | 50 | 267 | 0.0 | 0.0 | 0.00 | 0.00 | 0.00 | 84 | 1010.3 |
| 20260505051456 | 50 | 267 | 0.0 | 0.0 | 0.00 | 0.00 | 0.00 | 83 | 1010.5 |
| 20260505050950 | 51 | 269 | 0.0 | 0.0 | 0.00 | 0.00 | 0.00 | 83 | 1010.5 |
| 20260505050443 | 51 | 270 | 0.0 | 0.0 | 0.00 | 0.00 | 0.00 | 83 | 1010.3 |
| 20260505041347 | 51 | 275 | 0.0 | 0.0 | 0.00 | 0.00 | 0.00 | 78 | 1010.8 |
| 20260505040846 | 51 | 276 | 0.0 | 0.0 | 0.00 | 0.00 | 0.00 | 78 | 1010.6 |
| 20260505040346 | 52 | 277 | 0.0 | 0.0 | 0.00 | 0.00 | 0.00 | 77 | 1010.6 |
| 20260505035846 | 52 | 277 | 0.0 | 0.0 | 0.00 | 0.00 | 0.00 | 76 | 1010.5 |
| 20260505035344 | 52 | 279 | 0.0 | 0.0 | 0.00 | 0.00 | 0.00 | 75 | 1010.5 |
| 20260505034845 | 52 | 279 | 0.0 | 0.0 | 0.00 | 0.00 | 0.00 | 74 | 1010.5 |
| 20260505034342 | 53 | 280 | 0.0 | 1.0 | 0.00 | 0.00 | 0.00 | 73 | 1010.5 |
| 20260505033843 | 53 | 271 | 0.0 | 1.0 | 0.00 | 0.00 | 0.00 | 72 | 1010.6 |
| 20260505033343 | 53 | 0 | 0.0 | 0.0 | 0.00 | 0.00 | 0.00 | 71 | 1010.5 |
| 20260505032843 | 54 | 0 | 0.0 | 0.0 | 0.00 | 0.00 | 0.00 | 69 | 1010.4 |
| 20260505031839 | 54 | 0 | 0.0 | 0.0 | 0.00 | 0.00 | 0.00 | 66 | 1010.1 |
| 20260505030338 | 55 | 87 | 0.0 | 0.0 | 0.00 | 0.00 | 0.00 | 63 | 1009.7 |
| 20260505025839 | 55 | 92 | 0.0 | 0.0 | 0.00 | 0.00 | 0.00 | 63 | 1009.6 |
| 20260505025339 | 55 | 92 | 0.0 | 0.0 | 0.00 | 0.00 | 0.00 | 63 | 1009.4 |
| 20260505024339 | 55 | 71 | 0.0 | 0.0 | 0.00 | 0.00 | 0.00 | 61 | 1009.4 |
| 20260505023839 | 55 | 345 | 0.0 | 0.0 | 0.00 | 0.00 | 0.00 | 61 | 1009.4 |
| 20260505022839 | 56 | 344 | 0.0 | 4.0 | 0.00 | 0.00 | 0.00 | 60 | 1009.4 |
| 20260505021839 | 56 | 344 | 1.0 | 5.0 | 0.00 | 0.00 | 0.00 | 60 | 1009.1 |
| 20260505021338 | 56 | 344 | 1.0 | 5.0 | 0.00 | 0.00 | 0.00 | 59 | 1009.2 |
| 20260505020838 | 57 | 329 | 0.0 | 4.0 | 0.00 | 0.00 | 0.00 | 57 | 1009.1 |
| 20260505020339 | 57 | 346 | 0.0 | 1.0 | 0.00 | 0.00 | 0.00 | 55 | 1009.2 |
| 20260505015839 | 58 | 348 | 0.0 | 0.0 | 0.00 | 0.00 | 0.00 | 53 | 1009.1 |
| 20260505015338 | 58 | 0 | 0.0 | 0.0 | 0.00 | 0.00 | 0.00 | 52 | 1009.1 |
| 20260505014831 | 58 | 348 | 0.0 | 1.0 | 0.00 | 0.00 | 0.00 | 52 | 1008.9 |
| 20260505014325 | 58 | 0 | 0.0 | 1.0 | 0.00 | 0.00 | 0.00 | 52 | 1008.8 |
| 20260505013820 | 58 | 24 | 0.0 | 1.0 | 0.00 | 0.00 | 0.00 | 51 | 1008.7 |
| 20260505013314 | 58 | 0 | 0.0 | 0.0 | 0.00 | 0.00 | 0.00 | 52 | 1008.7 |
| 20260505012808 | 59 | 0 | 0.0 | 0.0 | 0.00 | 0.00 | 0.00 | 51 | 1008.8 |
| 20260505012301 | 59 | 0 | 0.0 | 0.0 | 0.00 | 0.00 | 0.00 | 51 | 1008.8 |
| 20260505011756 | 59 | 285 | 0.0 | 0.0 | 0.00 | 0.00 | 0.00 | 51 | 1008.7 |
| 20260505011250 | 59 | 0 | 0.0 | 0.0 | 0.00 | 0.00 | 0.00 | 52 | 1008.8 |
| 20260505010744 | 60 | 0 | 0.0 | 0.0 | 0.00 | 0.00 | 0.00 | 52 | 1008.5 |
| 20260505010238 | 60 | 0 | 0.0 | 0.0 | 0.00 | 0.00 | 0.00 | 51 | 1008.5 |
| 20260505005731 | 60 | 0 | 0.0 | 0.0 | 0.00 | 0.00 | 0.00 | 48 | 1008.5 |
| 20260505004720 | 60 | 0 | 0.0 | 0.0 | 0.00 | 0.00 | 0.00 | 47 | 1008.5 |
| 20260505004214 | 60 | 0 | 0.0 | 1.0 | 0.00 | 0.00 | 0.00 | 45 | 1008.4 |
| 20260505003709 | 61 | 0 | 0.0 | 1.0 | 0.00 | 0.00 | 0.00 | 45 | 1008.3 |
| 20260505003203 | 61 | 319 | 0.0 | 1.0 | 0.00 | 0.00 | 0.00 | 44 | 1008.2 |
| 20260505002657 | 62 | 11 | 0.0 | 1.0 | 0.00 | 0.00 | 0.00 | 42 | 1008.2 |
| 20260505002149 | 62 | 340 | 0.0 | 0.0 | 0.00 | 0.00 | 0.00 | 39 | 1008.1 |
| 20260505001644 | 62 | 340 | 0.0 | 0.0 | 0.00 | 0.00 | 0.00 | 39 | 1008.1 |
| 20260505001137 | 62 | 325 | 0.0 | 0.0 | 0.00 | 0.00 | 0.00 | 39 | 1008.0 |
| 20260505000631 | 62 | 321 | 0.0 | 0.0 | 0.00 | 0.00 | 0.00 | 39 | 1007.8 |
| 20260505000125 | 62 | 321 | 0.0 | 1.0 | 0.00 | 0.00 | 0.00 | 39 | 1007.8 |
| 20260504235620 | 63 | 318 | 0.0 | 1.0 | 0.00 | 0.00 | 0.00 | 39 | 1007.7 |
| 20260504234605 | 63 | 285 | 0.0 | 0.0 | 0.00 | 0.00 | 0.00 | 39 | 1007.6 |
| 20260504233047 | 63 | 355 | 0.0 | 4.0 | 0.00 | 0.00 | 0.00 | 38 | 1007.7 |
| 20260504232037 | 64 | 298 | 1.0 | 10.0 | 0.00 | 0.00 | 0.00 | 38 | 1007.7 |
| 20260504231530 | 65 | 294 | 1.0 | 8.0 | 0.00 | 0.00 | 0.00 | 37 | 1007.7 |
| 20260504231023 | 65 | 305 | 1.0 | 9.0 | 0.00 | 0.00 | 0.00 | 33 | 1007.5 |
| 20260504230518 | 65 | 68 | 1.0 | 9.0 | 0.00 | 0.00 | 0.00 | 32 | 1007.4 |
| 20260504230012 | 66 | 5 | 0.0 | 4.0 | 0.00 | 0.00 | 0.00 | 31 | 1007.4 |
| 20260504225507 | 66 | 33 | 0.0 | 1.0 | 0.00 | 0.00 | 0.00 | 30 | 1007.5 |
| 20260504225001 | 66 | 345 | 0.0 | 1.0 | 0.00 | 0.00 | 0.00 | 30 | 1007.3 |
| 20260504224455 | 66 | 332 | 0.0 | 2.0 | 0.00 | 0.00 | 0.00 | 30 | 1007.1 |
| 20260504223947 | 67 | 346 | 0.0 | 2.0 | 0.00 | 0.00 | 0.00 | 30 | 1007.1 |
| 20260504223442 | 67 | 296 | 0.0 | 1.0 | 0.00 | 0.00 | 0.00 | 30 | 1007.0 |
| 20260504222936 | 67 | 55 | 0.0 | 1.0 | 0.00 | 0.00 | 0.00 | 29 | 1007.0 |
| 20260504222430 | 68 | 344 | 0.0 | 2.0 | 0.00 | 0.00 | 0.00 | 29 | 1007.0 |
| 20260504221924 | 68 | 75 | 1.0 | 8.0 | 0.00 | 0.00 | 0.00 | 28 | 1006.7 |
| 20260504221418 | 69 | 60 | 1.0 | 8.0 | 0.00 | 0.00 | 0.00 | 28 | 1006.6 |
| 20260504220911 | 69 | 259 | 0.0 | 4.0 | 0.00 | 0.00 | 0.00 | 28 | 1006.4 |
| 20260504220405 | 70 | 60 | 1.0 | 10.0 | 0.00 | 0.00 | 0.00 | 27 | 1006.3 |
| 20260504215859 | 70 | 327 | 2.0 | 10.0 | 0.00 | 0.00 | 0.00 | 28 | 1006.1 |
| 20260504214849 | 68 | 14 | 3.0 | 11.0 | 0.00 | 0.00 | 0.00 | 29 | 1006.1 |
| 20260504214346 | 68 | 42 | 2.0 | 11.0 | 0.00 | 0.00 | 0.00 | 30 | 1006.2 |